Tracking 33197 objects as of 18-Feb-2026
HD Live streaming from Space Station
objects crossing your sky now

METEOR 1-17 DEB

Track METEOR 1-17 DEB now!
10-day predictions


NORAD ID: 57543
Int'l Code: 1974-025J
Perigee: 821.7 km
Apogee: 838.8 km
Inclination: 81.2 °
Period: 101.4 minutes
Semi major axis: 7201 km
RCS: Unknown
Launch date: April 24, 1974
Source: Commonwealth of Independent States (former USSR) (CIS)
Launch site: PLESETSK MISSILE AND SPACE COMPLEX (PKMTR)

Note: This is SATELLITE DEBRIS
Your satellite tracking list
Your tracking list is empty




NASA's NSSDC Master Catalog

Two Line Element Set (TLE):
1 57543U 74025J   26043.33327430  .00005676  00000-0  26276-2 0  9991
2 57543  81.1984  49.8228 0011859 351.9997   8.0988 14.20671410139830
Source of the keplerian elements: AFSPC